Weather in Gavrovo

Russia / Pskov Oblast     57°43′44″N   30°08′46″E
temp.,
°C
wind,
m/s
gust,
m/s
humid.,
%
clouds,
%
prec.,
mm/h
press.,
hPa
HPBL,
m
23 april, fri
fri2300:00+5ssw3791100 0.4 1008239
03:00+4ssw3990100 0.4 1007452
06:00+3ssw3891100 0.0 1008492
09:00+4ssw577360 0.0 10081060
12:00+5ssw596896 0.1 10081410
15:00+7ssw5954100 0.1 10091788
18:00+7sw58635 0.5 10081432
21:00+3ssw39805 0.5 1009281
24 april, sat
sat2400:00+1ssw37915 0.0 1009217
03:000ssw379087 0.0 1009315
06:00+1w3796100 0.1 1008524
09:00+1w457594 0.1 1009806
12:00+3sw456199 0.1 10081292
15:00+6wsw465599 0.3 10081549
18:00+5w467496 0.7 10081112
21:00+2w398929 0.8 1008523
25 april, sun
sun2500:000wsw399367 0.0 1008542
03:00−1wsw389498 0.1 1008447
06:00−1sw3794100 0.1 1007393
09:00+1sw2486100 0.2 1006520
12:00+2wsw3696100 0.8 1007405
15:00+5w466583 1.1 10061340
18:00+6wsw356511 0.6 10061272
21:00+1w26896 0.8 1007121
26 april, mon
mon2600:00−1w279768 0.0 1007148
03:00−1wsw2799100 0.0 1008212
06:000wsw3895100 0.0 1008403
09:00+1wsw3684100 0.1 1008751
12:00+3wsw3567100 0.1 10081184
15:00+5sw4561100 0.2 10071369
18:00+5wsw3568100 0.3 10071055
21:00+2ssw2587100 0.3 1006100
27 april, tue
tue2700:00+1sw2492100 0.0 1006108
03:00+1sw2796100 0.0 1005310
06:00+1sw2698100 0.8 1004503
09:00+1w2399100 1.4 1005220
12:00+2nw2499100 0.2 1006498
15:00+3nw2698100 0.3 1006412
18:00+3nw2694100 0.2 1007534
21:00+2wnw2698100 0.4 1008511